Preview of NWS' New Version of Forecast
This preview is not operational and should not be used for support decisions.

Regional Weather Roundup (RWR)

Issued by National Weather Service (NWS)

                            
000
ASUS46 KSEW 210510
RWRWA 

WASHINGTON REGIONAL WEATHER ROUNDUP
NATIONAL WEATHER SERVICE SEATTLE WA
1000 PM PDT FRI SEP 20 2019

NOTE:"FAIR" INDICATES FEW OR NO CLOUDS BELOW 12,000 FEET WITH NO 
SIGNIFICANT WEATHER AND/OR OBSTRUCTIONS TO VISIBILITY.

WAZ507-509-555>559-210600-
SEATTLE, TACOMA, EVERETT, AND VICINITY
  
CITY           SKY/WX    TMP DP  RH WIND       PRES   REMARKS
EVERETT        CLEAR     60  53  77 E3        30.14S                  
BOEING FIELD   CLEAR     60  54  80 SE3       30.13R                  
RENTON         CLEAR     60  55  83 S3        30.12S                  
SEATAC AIRPORT PTCLDY    63  54  72 SE7       30.13S                  
JBLM-MCCHORD   NOT AVBL                                               
PUYALLUP       FAIR      57  57 100 CALM      30.14R                  
BREMERTON      PTCLDY    56  54  93 CALM      30.13S                  
JBLM-FT LEWIS  CLOUDY    62  62  99 W7        30.13R                  
TACOMA NARROWS PTCLDY    60  54  80 CALM      30.14R                  
$$
 
WAZ001-503-506-510-514-515-210600-
NORTH INTERIOR
  
CITY           SKY/WX    TMP DP  RH WIND       PRES   REMARKS
BELLINGHAM     PTCLDY    57  52  83 CALM      30.12S                  
FRIDAY HARBOR  CLOUDY    54  52  93 CALM      30.13S                  
EASTSOUND      CLEAR     55  54  94 CALM      30.11S                  
PORT ANGELES   CLOUDY    58  56  93 W3        30.14R                  
EDIZ HOOK      CLOUDY    59  57  91 W3        30.13S                  
PORT TOWNSEND  FAIR      52  52 100 CALM      30.12S                  
NAS WHIDBEY    MOCLDY    59  52  77 E6        30.16S                  
ARLINGTON      PTCLDY    54  53  97 N6        30.14R                  
BURLINGTON     CLOUDY    57  55  94 CALM      30.13S                  
$$
 
WAZ020-022-039-040-504-511-512-210600-
SOUTHWEST INTERIOR
  
CITY           SKY/WX    TMP DP  RH WIND       PRES   REMARKS
SHELTON        CLEAR     59  55  87 SW8       30.11R                  
OLYMPIA        CLEAR     55  52  89 SE5       30.13R                  
CHEHALIS       FAIR      55  55 100 CALM      30.15R                  
KELSO          CLOUDY    61  58  90 CALM      30.15R                  
VANCOUVER      CLOUDY    63  56  78 CALM      30.13R                  
SCAPPOOSE, OR  PTCLDY    61  56  83 W3        30.13R                  
PORTLAND, OR   MOCLDY    64  56  75 CALM      30.13R                  
$$
 
WAZ021-516-517-210600-
WASHINGTON COAST
  
CITY           SKY/WX    TMP DP  RH WIND       PRES   REMARKS
FORKS          FOG       51  51 100 CALM      30.14S VSB 1/4          
HOQUIAM        CLEAR     59  59 100 NW5       30.15R                  
ASTORIA, OR    CLOUDY    61  59  93 CALM      30.14S                  
$$
 
WAZ019-023-024-040-567>569-210600-
CASCADE MOUNTAINS AND COLUMBIA GORGE
  
CITY           SKY/WX    TMP DP  RH WIND       PRES   REMARKS
STAMPEDE PASS  NOT AVBL                                               
TROUTDALE, OR  MOCLDY    60  55  83 CALM      30.13R                  
HOOD RIVER, OR PTCLDY    59  50  72 CALM      30.11R                  
THE DALLES, OR PTCLDY    64  48  56 NW12      30.07R                  
$$

WAZ026-027-041>044-520-521-210600-
EAST SLOPES
  
CITY           SKY/WX    TMP DP  RH WIND       PRES   REMARKS
OMAK           CLEAR     57  44  62 W13       30.03R                  
WENATCHEE      CLEAR     61  43  51 NW12      30.04R                  
ELLENSBURG     CLEAR     59  44  57 NW17      30.06R                  
YAKIMA         CLEAR     63  42  46 NW10      30.05R                  
SUNNYSIDE ARPT CLEAR     55  49  80 CALM      30.04                   
YAKIMA TC      FAIR      55  42  61 CALM      30.04S                  
$$

WAZ028-034-035-210600-
COLUMBIA BASIN
  
CITY           SKY/WX    TMP DP  RH WIND       PRES   REMARKS
EPHRATA        CLEAR     63  43  48 NW10      30.01R                  
MOSES LAKE     CLOUDY    65  45  48 W5        30.02R                  
PASCO          CLEAR     61  50  67 NE5       30.03R                  
RICHLAND ARPT  CLEAR     62  50  65 CALM      30.03R                  
HERMISTON, OR  CLEAR     60  50  69 S9        30.04R                  
$$

WAZ036>038-210600-
NORTHEAST WASHINGTON
  
CITY           SKY/WX    TMP DP  RH WIND       PRES   REMARKS
SPOKANE GEIGER MOCLDY    56  48  74 SW17      30.03R                  
SPOKANE FELTS  PTCLDY    57  51  80 CALM      30.04S                  
FAIRCHILD AFB  NOT AVBL                                               
COEURDALENE,ID NOT AVBL                                               
DEER PARK      CLOUDY    51  48  89 NE5       30.04S                  
$$

WAZ029>033-210600-
SOUTHEAST WASHINGTON
  
CITY           SKY/WX    TMP DP  RH WIND       PRES   REMARKS
PULLMAN        CLOUDY    54  48  80 CALM      30.08S                  
LEWISTON, ID   CLOUDY    62  48  60 SE8       30.05R                  
WALLA WALLA    CLOUDY    63  45  51 SE7       30.04S                  
PENDLETON, OR  PTCLDY    58  46  64 W3        30.06R                  
$$